Location: Aizecourt
(49.9805°N, 3.0330°E)
Time: 01:18:28
(UTC+00:00)

Daily predictions for brighter satellites

Satellite Brightness Start Highest point End
(mag) Time Altitude Azimuth Time Altitude Azimuth Time Altitude Azimuth
STARLINK-1227 3.6 00:00:03 10° WNW 00:03:06 53° N 00:06:08 10° E
ATLAS CENTAUR R/B 3.2 00:01:53 10° NW 00:03:42 24° NNE 00:06:28 10° E
STARLINK-1226 3.6 00:00:53 10° WNW 00:03:58 54° NNE 00:07:02 10° E
STARLINK-1215 3.6 00:01:50 10° WNW 00:04:54 54° N 00:07:59 10° E
STARLINK-1225 3.9 00:00:52 10° W 00:05:00 68° NNW 00:09:09 10° ENE
Cosmos 292 Rocket 4.0 00:03:39 31° SW 00:05:53 67° WNW 00:10:44 10° NNE
STARLINK-1217 3.6 00:03:36 10° WNW 00:06:41 55° NNE 00:09:45 10° E
STARLINK-1229 3.5 00:04:31 10° WNW 00:07:36 55° NNE 00:10:41 10° E
STARLINK-1271 4.3 00:03:52 10° WNW 00:07:57 55° N 00:12:03 10° E
STARLINK-1104 4.1 00:04:30 10° WNW 00:08:12 40° SW 00:08:12 40° SW
STARLINK-1270 3.5 00:05:23 10° WNW 00:08:29 56° NNE 00:11:34 10° E
S3M 4.5 00:03:47 10° NNW 00:09:38 48° W 00:12:36 28° SSW
STARLINK-1230 4.0 00:05:51 10° W 00:09:59 66° NNW 00:14:07 10° ENE
Cosmos 1726 2.5 00:06:43 10° NNW 00:10:18 48° W 00:10:54 43° SW
STARLINK-1189 3.5 00:07:13 10° WNW 00:10:19 56° NNE 00:13:23 10° E
Cosmos 1655 Rocket 4.3 00:07:30 27° SSW 00:10:55 60° WNW 00:17:08 10° N
STARLINK-1188 3.5 00:08:07 10° WNW 00:11:12 57° NNE 00:14:17 10° E
Cosmos 2058 Rocket 4.0 00:07:12 10° N 00:11:25 41° ENE 00:13:46 23° SE
GEOS 3 Rocket 3.6 00:07:39 19° SE 00:11:30 87° NE 00:16:51 10° NW
STARLINK-1235 3.3 00:08:48 10° WNW 00:11:54 63° NNE 00:14:58 10° E
STARLINK-1187 3.4 00:09:14 10° WNW 00:12:18 60° NNE 00:15:23 10° E
STARLINK-1154 4.3 00:08:52 10° WNW 00:12:57 56° N 00:17:03 10° E
Meteor 1-29 3.8 00:09:50 10° NNE 00:13:01 37° E 00:13:32 35° ESE
SL-27 R/B 4.2 00:10:26 10° NW 00:13:10 20° W 00:13:10 20° W
STARLINK-1144 4.2 00:09:31 10° WNW 00:13:00 37° SW 00:13:00 37° SW
STARLINK-1191 3.4 00:10:36 10° WNW 00:13:40 58° NNE 00:16:44 10° E
Cosmos 2228 3.0 00:09:45 10° N 00:14:02 79° E 00:15:32 39° SSE
COSMOS 2455 3.4 00:11:39 29° SSE 00:14:06 44° ESE 00:19:47 10° NE
SJ 16-02 4.1 00:12:01 10° NNE 00:14:31 15° NE 00:17:02 10° E
STARLINK-1221 3.4 00:11:28 10° WNW 00:14:33 58° NNE 00:17:36 10° E
STARLINK-1243 4.0 00:10:51 10° W 00:14:57 64° NNW 00:19:06 10° ENE
Cosmos 2263 4.2 00:12:25 29° SW 00:15:22 81° WNW 00:21:02 10° NNE
STARLINK-1222 3.4 00:12:21 10° WNW 00:15:26 58° NNE 00:18:31 10° E
STARLINK-1214 3.4 00:13:16 10° WNW 00:16:20 59° NNE 00:19:25 10° E
Meteor 2-15 Rocket 4.4 00:11:31 10° NNW 00:17:42 81° W 00:20:55 30° S
STARLINK-1197 4.3 00:13:51 10° WNW 00:17:57 56° N 00:22:02 10° E
STARLINK-1103 4.4 00:14:31 10° WNW 00:17:47 34° SW 00:17:47 34° SW
Cosmos 1953 3.2 00:14:51 10° NNW 00:18:34 37° W 00:19:26 32° WSW
STARLINK-1236 4.1 00:15:51 10° W 00:19:57 62° NNW 00:24:05 10° ENE
Cosmos 1340 Rocket 3.3 00:16:20 10° NNW 00:20:13 47° W 00:21:08 39° SW
IRAS Rocket 4.5 00:17:53 22° SE 00:21:36 67° ENE 00:27:08 10° NNW
STARLINK-1198 4.3 00:18:49 10° WNW 00:22:55 57° N 00:27:01 10° E
Cosmos 1271 Rocket 4.3 00:21:40 21° WSW 00:23:10 27° WNW 00:26:32 10° N
Cosmos 1300 3.9 00:19:38 10° N 00:23:12 36° ENE 00:25:04 22° SE
Cosmos 1174 4.4 00:23:33 31° ESE 00:23:36 31° ESE 00:26:47 10° NE
Okean 1-7 Rocket 4.4 00:22:03 28° SE 00:23:52 42° E 00:28:08 10° NNE
BREEZE M DEB (TANK) 3.9 00:26:49 18° E 00:26:49 18° E 00:27:48 10° E
COSMOS 2487 2.3 00:23:20 10° NNW 00:26:48 70° WSW 00:27:18 58° SSW
Cosmos 1992 Rocket 4.1 00:25:15 29° SW 00:27:52 68° WNW 00:33:05 10° NNE
STARLINK-1199 4.2 00:23:50 10° WNW 00:27:57 58° N 00:32:03 10° E
STARLINK-1269 4.1 00:25:49 10° W 00:29:55 60° N 00:34:03 10° ENE
Cosmos 1707 4.4 00:29:05 20° WSW 00:30:36 25° WNW 00:33:55 10° NNW
STARLINK-1210 4.2 00:28:49 10° WNW 00:32:55 59° N 00:37:02 10° E
STARLINK-1200 4.2 00:30:51 10° W 00:34:56 59° N 00:39:03 10° ENE
Cosmos 1626 2.9 00:34:31 32° SE 00:35:39 43° E 00:39:13 10° NNE
STARLINK-60 4.4 00:36:27 25° ESE 00:36:27 25° ESE 00:38:29 10° E
Cosmos 1656 Rocket 3.7 00:33:52 28° SW 00:36:55 78° WNW 00:42:33 10° NNE
Cosmos 1606 Rocket 3.7 00:33:07 10° NNW 00:37:23 59° W 00:38:48 38° SSW
STARLINK-1219 4.2 00:33:48 10° WNW 00:37:55 60° N 00:42:02 10° E
In-Cosmos 22 4.5 00:35:37 27° SW 00:38:17 53° WNW 00:43:29 10° N
STARLINK-1192 4.2 00:35:51 10° W 00:39:56 58° N 00:44:03 10° ENE
FALCON 9 R/B 3.8 00:38:25 25° S 00:40:36 29° SSE 00:54:07 10° ESE
STARLINK-1211 4.1 00:38:47 10° WNW 00:42:54 62° N 00:47:01 10° E
CZ-4 R/B 4.0 00:38:20 10° N 00:43:09 64° WNW 00:45:23 31° SW
STARLINK-1244 4.3 00:40:50 10° W 00:44:55 57° N 00:49:01 10° ENE
Cosmos 2297 Rocket 3.5 00:41:49 10° NNW 00:47:09 39° NE 00:52:26 10° ESE
MOZ.5/SAFIR/RUBIN 5/SL-8 4.3 00:44:15 18° SE 00:47:33 54° ENE 00:52:05 10° N
STARLINK-1245 4.1 00:43:47 10° WNW 00:47:55 63° NNE 00:52:02 10° E
Meteor 2-21 4.4 00:45:34 28° S 00:49:03 86° E 00:55:17 10° N
STARLINK-1138 4.3 00:45:50 10° W 00:49:55 56° N 00:54:01 10° ENE
SL-4 R/B 2.8 00:49:12 34° S 00:50:37 43° SSE 00:55:06 10° ENE
PSLV R/B 4.0 00:47:15 10° N 00:51:49 58° WNW 00:53:53 30° SW
NOSS 5 (C) 4.3 00:48:42 10° NW 00:51:50 75° SW 00:53:30 30° SSE
STARLINK-1203 4.3 00:48:25 10° W 00:52:35 56° N 00:56:44 10° ENE
STARLINK-1233 4.0 00:48:45 10° WNW 00:52:53 65° NNE 00:57:01 10° E
Cosmos 1437 3.7 00:52:48 29° SE 00:53:27 33° E 00:56:14 10° NNE
Cosmos 1674 3.4 00:53:21 31° WSW 00:54:31 41° WNW 00:58:07 10° N
STARLINK-1143 4.3 00:50:50 10° W 00:54:55 56° N 00:59:01 10° ENE
SL-19 R/B 4.2 00:51:31 10° NNE 00:56:54 77° ESE 01:00:03 27° S
STARLINK-1204 4.0 00:53:45 10° WNW 00:57:54 67° NNE 01:02:02 10° E
ATLAS CENTAUR R/B 1.5 00:56:56 35° SSW 00:58:36 65° SE 01:02:42 10° NE
Cosmos 1777 Rocket 4.0 00:53:42 10° NNW 00:58:55 69° WSW 01:01:54 26° S
Timation 2 Rocket 3.9 00:52:46 10° NNW 00:59:13 83° WSW 01:04:30 14° SSE
STARLINK-1241 4.3 00:55:50 10° W 00:59:54 55° N 01:04:00 10° ENE
BREEZE-M R/B 4.1 01:01:07 26° SSE 01:01:23 26° SSE 01:04:17 10° E
NOSS 3-4 (A) 3.4 00:57:31 23° SW 01:01:29 84° NW 01:07:58 10° NE
NOSS 3-4 (C) 3.4 00:57:37 23° SW 01:01:35 84° NW 01:08:04 10° NE
SL-16 R/B 2.8 00:56:01 12° SSE 01:01:41 69° ENE 01:07:50 10° NNW
STARLINK-1238 3.9 00:58:43 10° WNW 01:02:51 69° NNE 01:07:00 10° E
Spot 1 4.3 01:00:54 30° S 01:03:08 67° WSW 01:08:01 10° NNW
STARLINK-29 4.3 01:04:34 26° SE 01:04:34 26° SE 01:07:05 10° E
STARLINK-1239 4.3 01:00:49 10° W 01:04:54 55° N 01:09:00 10° ENE
Cosmos 1455 4.2 01:02:25 10° NNE 01:05:32 24° ENE 01:08:37 10° SE
ATLAS 3B R/B 2.7 00:59:41 10° NW 01:06:21 60° SW 01:12:42 12° SSE
STARLINK-1201 3.9 01:03:43 10° WNW 01:07:52 71° NNE 01:12:01 10° E
STARLINK-1240 4.3 01:05:50 10° W 01:09:55 55° N 01:14:00 10° ENE
CENTAUR R/B 3.8 01:02:41 10° NW 01:09:57 37° WSW 01:14:47 21° SSW
BREEZE-M DEB (TANK) 1.5 01:12:38 47° SSE 01:12:38 47° SSE 01:14:48 10° E
STARLINK-1206 3.8 01:08:42 10° WNW 01:12:51 74° NNE 01:17:00 10° ESE
Cosmos 1867 4.3 01:09:46 10° NW 01:14:41 35° WSW 01:16:44 26° SSW
STARLINK-1216 4.3 01:10:49 10° WNW 01:14:54 55° N 01:19:00 10° E
Meteor 2-21 Rocket 4.5 01:11:40 25° SSW 01:15:29 80° W 01:21:42 10° N
Cosmos 1892 Rocket 4.0 01:14:51 28° SW 01:16:54 49° WNW 01:21:12 10° N
Cosmos 1745 Rocket 4.1 01:12:46 21° S 01:16:57 74° E 01:23:06 10° NNE
STARLINK-1205 3.8 01:13:41 10° WNW 01:17:50 76° NNE 01:21:59 10° ESE
STARLINK-1237 4.3 01:15:50 10° WNW 01:19:54 55° N 01:24:00 10° E
RESURS DK-1 2.4 01:19:17 30° SSW 01:21:10 69° ESE 01:25:19 10° NE
STARLINK-1218 3.7 01:18:39 10° WNW 01:22:48 79° NNE 01:26:58 10° ESE
Cosmos 2227 Rocket 2.8 01:17:17 10° NNW 01:22:55 58° NE 01:28:30 10° SE
Cosmos 1356 Rocket 3.3 01:19:10 10° NNW 01:23:20 83° WSW 01:25:49 24° S
STARLINK-1202 4.3 01:20:50 10° WNW 01:24:55 55° N 01:29:01 10° E
Meteor 1-24 Rocket 3.8 01:22:03 25° SSW 01:25:09 62° WNW 01:30:32 10° N
Cosmos 2369 Rocket 4.0 01:21:48 10° W 01:26:25 25° NW 01:31:03 10° NNE
CZ-2D R/B 2.4 01:21:22 10° NNE 01:26:37 62° ESE 01:30:15 20° S
Helios 1B rocket 4.1 01:23:31 10° N 01:26:54 25° WNW 01:29:11 16° WSW
STARLINK-1254 3.7 01:23:38 10° WNW 01:27:48 82° NNE 01:31:58 10° ESE
ADEOS II 3.7 01:24:34 10° NE 01:29:06 28° E 01:33:36 10° SSE
ATLAS 2AS CENTAUR R/B 3.4 01:23:17 13° WSW 01:30:28 65° NW 01:38:19 10° NE
STARLINK-1231 3.6 01:28:38 10° WNW 01:32:48 86° NNE 01:36:58 10° ESE
IKONOS-2 4.5 01:29:56 20° S 01:32:50 80° WSW 01:37:09 10° NNW
CZ-4C R/B 3.6 01:30:46 25° S 01:33:07 62° WSW 01:37:27 10° NNW
STARLINK-1228 3.4 01:31:19 10° WNW 01:34:29 40° SSW 01:37:37 10° SE
STARLINK-1246 4.3 01:30:48 10° WNW 01:34:54 56° N 01:39:00 10° E
STARLINK-1234 3.3 01:32:44 10° WNW 01:35:42 39° SSW 01:37:02 24° SSE
Resurs 1-4 Rocket 2.2 01:31:05 10° NNE 01:36:24 76° ESE 01:40:12 20° S
STARLINK-1212 3.0 01:34:04 10° WNW 01:37:05 48° SSW 01:40:05 10° SE
Cosmos 1943 Rocket 4.4 01:33:36 10° WNW 01:37:22 18° NW 01:41:10 10° N
STARLINK-1105 3.0 01:34:33 10° WNW 01:37:33 48° SSW 01:40:32 10° SE
STARLINK-1232 3.6 01:33:37 10° WNW 01:37:48 89° NE 01:41:57 10° ESE
STARLINK-1209 3.4 01:35:01 10° WNW 01:37:57 36° SW 01:38:42 31° S
STARLINK-1247 3.0 01:35:27 10° WNW 01:38:29 47° SSW 01:41:29 10° SE
Meteor 2-5 Rocket 4.5 01:35:17 19° SW 01:38:47 39° WNW 01:44:01 10° N
STARLINK-1227 3.0 01:35:55 10° WNW 01:38:55 47° SSW 01:41:54 10° SE
STARLINK-1226 3.0 01:36:46 10° WNW 01:39:47 46° SSW 01:42:47 10° SE
STARLINK-1224 4.3 01:35:48 10° WNW 01:39:53 57° N 01:44:00 10° E
USA 81 4.2 01:36:19 17° S 01:40:27 70° E 01:45:44 10° N
STARLINK-52 3.4 01:39:41 32° SSW 01:40:39 43° SSE 01:43:43 10° ENE
STARLINK-1215 3.1 01:37:43 10° WNW 01:40:43 46° SSW 01:43:43 10° SE
ARIANE 5 R/B 4.5 01:37:10 10° NE 01:41:08 22° E 01:45:03 10° SE
STARLINK-1217 3.1 01:39:29 10° WNW 01:42:29 44° SSW 01:45:28 10° SE
STARLINK-1208 3.5 01:38:35 10° WNW 01:42:44 87° SSW 01:46:54 10° ESE
Cosmos 1758 Rocket 4.5 01:39:23 14° SSE 01:42:53 44° E 01:47:03 10° NNE
STARLINK-1229 3.1 01:40:24 10° WNW 01:43:25 44° SSW 01:46:24 10° SE
NPP 3.8 01:38:25 10° NNE 01:43:51 76° ESE 01:47:57 18° S
STARLINK-1270 3.1 01:41:16 10° WNW 01:44:16 43° SSW 01:47:15 10° SE
STARLINK-1225 4.3 01:40:48 10° WNW 01:44:54 58° N 01:49:01 10° E
STARLINK-1189 3.2 01:43:07 10° WNW 01:46:06 42° SSW 01:49:04 10° SE
STARLINK-1188 3.2 01:44:00 10° WNW 01:46:59 41° SSW 01:49:57 10° SE
STARLINK-1235 3.5 01:44:45 10° W 01:47:36 33° SW 01:50:26 10° SSE
STARLINK-1271 3.5 01:43:35 10° WNW 01:47:44 83° SSW 01:51:54 10° ESE
STARLINK-1187 3.3 01:45:09 10° WNW 01:48:02 36° SSW 01:50:56 10° SE
Cosmos 1898 Rocket 3.8 01:42:52 10° NNW 01:48:14 72° ENE 01:53:32 10° SSE
STARLINK-1191 3.2 01:46:30 10° WNW 01:49:25 39° SSW 01:52:21 10° SE
Lacrosse 4 Rocket 3.3 01:45:47 10° NNW 01:49:48 33° NE 01:53:43 10° ESE
STARLINK-1230 4.2 01:45:47 10° WNW 01:49:53 59° N 01:54:00 10° E
Starlink 7 placeholder 2.0 01:49:43 46° WNW 01:50:06 62° NNW 01:52:04 10° ENE
STARLINK-1221 3.3 01:47:22 10° WNW 01:50:17 39° SSW 01:53:12 10° SE
STARLINK-1222 3.3 01:48:16 10° WNW 01:51:11 38° SSW 01:54:06 10° SE
Meteor 1-21 Rocket 4.4 01:46:49 16° S 01:51:22 72° E 01:57:02 10° NNE
STARLINK-1214 3.3 01:49:11 10° WNW 01:52:05 37° SSW 01:54:59 10° SE
STARLINK-1154 3.5 01:48:34 10° WNW 01:52:43 79° SSW 01:56:52 10° ESE
Cosmos 1656 4.3 01:48:20 16° S 01:52:45 51° ESE 01:58:11 10° NE
SJ 16-02 1.4 01:49:22 10° NNW 01:53:49 87° ENE 01:58:15 10° SSE
CZ-4C R/B 3.7 01:50:43 10° SSE 01:54:43 25° ESE 01:59:19 10° ENE
STARLINK-1243 4.2 01:50:46 10° WNW 01:54:53 60° N 01:59:00 10° E
Cosmos 2084 3.6 01:52:18 21° SSW 01:55:08 67° SE 01:59:36 10° NE
STARLINK-1197 3.5 01:53:32 10° WNW 01:57:42 75° SSW 02:01:50 10° ESE
Cosmos 1937 Rocket 4.0 01:53:16 10° NNW 01:58:30 64° ENE 02:03:42 10° SE
Cosmos 1300 4.3 01:55:47 10° NW 01:58:38 20° W 02:00:00 17° WSW
STARLINK-1236 4.2 01:55:46 10° WNW 01:59:53 61° N 02:04:00 10° E
COSMOS 2455 3.6 01:54:47 12° WSW 02:00:03 46° NW 02:05:53 10° NNE
Meteor 2-10 Rocket 3.5 01:55:25 10° NNW 02:00:49 78° W 02:05:58 10° S
STARLINK-1198 3.5 01:58:30 10° WNW 02:02:38 71° SSW 02:06:46 10° ESE
Cosmos 921 Rocket 3.7 02:00:21 18° SW 02:03:09 43° WNW 02:07:18 10° N
Cosmos 1709 Rocket 4.0 02:01:48 14° S 02:07:05 85° W 02:13:15 10° N
STARLINK-1199 3.5 02:03:31 10° WNW 02:07:38 67° SSW 02:11:46 10° SE
Cosmos 1626 Rocket 4.2 02:06:42 18° SW 02:09:31 40° WNW 02:13:38 10° N
STARLINK-1269 4.1 02:05:43 10° WNW 02:09:51 64° NNE 02:13:59 10° E
Cosmos 1626 4.1 02:09:03 12° WSW 02:11:09 17° WNW 02:13:41 10° NNW
STARLINK-60 3.1 02:08:52 13° W 02:11:37 70° NNW 02:14:49 10° ENE
STARLINK-1210 3.6 02:08:29 10° WNW 02:12:36 63° SSW 02:16:42 10° SE
STARLINK-1200 4.0 02:10:44 10° WNW 02:14:51 66° NNE 02:19:00 10° E
Cosmos 2219 3.5 02:10:20 10° NW 02:15:44 46° WSW 02:21:05 10° S
STARLINK-1320 4.0 02:14:52 19° SSW 02:16:30 31° SE 02:19:20 10° E
STARLINK-1322 4.0 02:15:11 19° SSW 02:16:51 31° SE 02:19:40 10° E
STARLINK-1324 3.9 02:15:32 19° SSW 02:17:12 31° SE 02:20:02 10° E
STARLINK-1294 3.9 02:15:47 18° SSW 02:17:29 32° SE 02:20:20 10° E
STARLINK-1219 3.6 02:13:28 10° WNW 02:17:33 60° SSW 02:21:39 10° SE
STARLINK-1261 3.9 02:16:09 18° SSW 02:17:51 32° SE 02:20:41 10° E
STARLINK-1325 3.9 02:16:30 18° SSW 02:18:12 32° SE 02:21:03 10° E
STARLINK-1333 3.9 02:16:48 18° SSW 02:18:31 32° SE 02:21:21 10° E
STARLINK-1334 3.9 02:17:07 18° SSW 02:18:51 32° SE 02:21:42 10° E
STARLINK-1326 3.9 02:17:28 18° SSW 02:19:12 32° SE 02:22:03 10° E
STARLINK-1323 3.9 02:17:47 18° SSW 02:19:32 33° SE 02:22:23 10° E
STARLINK-1338 4.2 02:17:39 17° SSW 02:19:46 33° SE 02:22:57 10° E
STARLINK-1192 4.0 02:15:43 10° WNW 02:19:51 68° NNE 02:24:00 10° E
STARLINK-1349 3.9 02:18:06 18° SSW 02:19:52 33° SE 02:22:43 10° E
Cosmos 1980 Rocket 3.9 02:15:33 10° SSE 02:20:09 27° ESE 02:24:49 10° NE
STARLINK-1336 3.9 02:18:28 18° SSW 02:20:14 33° SE 02:23:05 10° E
STARLINK-1331 3.9 02:18:45 18° SSW 02:20:32 33° SE 02:23:24 10° E
STARLINK-1344 3.9 02:19:05 18° SSW 02:20:53 33° SE 02:23:44 10° E
STARLINK-1343 3.8 02:19:25 18° SSW 02:21:13 34° SE 02:24:05 10° E
STARLINK-1346 3.8 02:19:43 18° SSW 02:21:34 34° SE 02:24:29 10° E
STARLINK-1328 3.8 02:20:05 18° SSW 02:21:55 34° SE 02:24:47 10° E
STARLINK-1354 3.8 02:20:22 18° SSW 02:22:13 34° SE 02:25:05 10° E
STARLINK-1211 3.7 02:18:27 10° WNW 02:22:31 56° SSW 02:26:34 10° SE
STARLINK-1347 3.8 02:20:44 18° SSW 02:22:35 34° SE 02:25:28 10° E
STARLINK-1357 3.8 02:21:01 18° SSW 02:22:54 34° SE 02:25:47 10° ENE
Cosmos 1328 3.9 02:19:19 12° S 02:23:00 80° E 02:27:00 10° NNE
STARLINK-1335 3.8 02:21:22 18° SSW 02:23:15 35° SE 02:26:08 10° ENE
STARLINK-1327 3.8 02:21:41 18° SSW 02:23:34 35° SE 02:26:27 10° ENE
STARLINK-1371 4.1 02:21:31 16° SSW 02:23:47 35° SE 02:27:02 10° ENE
STARLINK-1340 3.8 02:22:01 17° SSW 02:23:55 35° SSE 02:26:49 10° ENE
STARLINK-1356 3.8 02:22:21 17° SSW 02:24:15 35° SSE 02:27:09 10° ENE
STARLINK-1345 3.8 02:22:41 17° SSW 02:24:36 35° SSE 02:27:30 10° ENE
Cosmos 192 4.5 02:20:35 15° SSW 02:24:42 70° WNW 02:29:41 10° NNE
ERBS 4.2 02:21:41 10° NW 02:24:45 33° NNE 02:27:49 10° E
STARLINK-1244 3.9 02:20:41 10° WNW 02:24:50 70° NNE 02:28:58 10° E
STARLINK-1355 3.8 02:22:59 17° SSW 02:24:55 36° SSE 02:27:50 10° ENE
STARLINK-1321 3.7 02:23:18 17° SSW 02:25:15 36° SSE 02:28:09 10° ENE
ERS-2 2.7 02:21:50 10° SSE 02:25:26 60° ENE 02:29:05 10° N
STARLINK-1358 3.7 02:23:39 17° SSW 02:25:37 36° SSE 02:28:31 10° ENE
STARLINK-1341 4.0 02:23:29 16° SSW 02:25:50 37° SE 02:29:05 10° ENE
STARLINK-1332 3.7 02:23:57 17° SSW 02:25:55 36° SSE 02:28:50 10° ENE
STARLINK-1348 3.7 02:24:18 17° SSW 02:26:17 36° SSE 02:29:12 10° ENE
STARLINK-1330 3.7 02:24:36 17° SSW 02:26:36 37° SSE 02:29:31 10° ENE
STARLINK-1363 3.7 02:24:56 17° SSW 02:26:56 37° SSE 02:29:51 10° ENE
STARLINK-1337 3.7 02:25:15 17° SSW 02:27:16 37° SSE 02:30:12 10° ENE
STARLINK-1245 3.7 02:23:27 10° WNW 02:27:30 52° SSW 02:31:32 10° SE
IRS-1C 4.4 02:22:14 10° NNE 02:27:35 70° ESE 02:32:54 10° S
STARLINK-1342 3.7 02:25:35 17° SSW 02:27:37 37° SSE 02:30:32 10° ENE
STARLINK-1374 4.0 02:25:26 16° SSW 02:27:52 38° SE 02:31:09 10° ENE
STARLINK-1364 3.7 02:25:55 17° SSW 02:27:57 37° SSE 02:30:53 10° ENE
AQUA 4.1 02:23:22 10° N 02:28:02 55° WNW 02:32:11 13° SW
STARLINK-1376 3.7 02:26:15 17° SSW 02:28:18 38° SSE 02:31:14 10° ENE
STARLINK-1360 3.7 02:26:30 17° SSW 02:28:34 38° SSE 02:31:31 10° ENE
STARLINK-1361 3.6 02:26:56 16° SSW 02:29:00 38° SSE 02:31:57 10° ENE
STARLINK-1367 3.7 02:27:10 16° SSW 02:29:16 38° SSE 02:32:15 10° ENE
STARLINK-1366 3.6 02:27:33 16° SSW 02:29:39 39° SSE 02:32:35 10° ENE
STARLINK-1138 3.9 02:25:40 10° WNW 02:29:49 73° NNE 02:33:58 10° ESE
STARLINK-1339 3.9 02:27:27 15° SSW 02:29:56 39° SSE 02:33:15 10° ENE
SL-4 R/B 2.4 02:25:22 10° WSW 02:30:13 83° NNW 02:34:53 10° ENE
CZ-4B R/B 3.9 02:25:33 10° N 02:30:32 53° WNW 02:35:12 12° SW
Cosmos 2297 Rocket 2.6 02:25:57 10° NW 02:31:16 43° WSW 02:36:34 10° S
STARLINK-1377 3.9 02:29:28 15° SSW 02:32:02 40° SSE 02:35:21 10° ENE
STARLINK-1233 3.8 02:28:26 10° WNW 02:32:27 49° SSW 02:36:27 10° SE
STARLINK-1203 3.9 02:28:28 10° WNW 02:32:42 75° NNE 02:36:54 10° ESE
STARLINK-1353 3.8 02:31:17 15° SW 02:33:54 41° SSE 02:37:11 10° ENE
STARLINK-1143 3.8 02:30:39 10° WNW 02:34:48 75° NNE 02:38:58 10° ESE
Cosmos 2082 3.7 02:29:25 10° NNW 02:35:06 75° WSW 02:40:43 10° SSE
STARLINK-1375 3.8 02:33:04 14° SW 02:35:45 42° SSE 02:39:04 10° ENE
Cosmos 990 Rocket 4.3 02:32:04 10° NNW 02:37:07 47° WSW 02:42:07 10° S
STARLINK-1204 3.9 02:33:26 10° WNW 02:37:25 46° SSW 02:41:23 10° SE
CBERS-1 4.1 02:32:21 10° N 02:37:26 66° WNW 02:42:28 10° SSW
ATLAS CENTAUR R/B 3.1 02:34:13 10° W 02:37:49 25° NW 02:41:14 10° NNE
STARLINK-1350 3.7 02:35:22 14° SW 02:38:08 44° SSE 02:41:28 10° ENE
Cosmos 540 Rocket 4.2 02:33:16 10° S 02:38:12 49° ESE 02:43:09 10° NNE
FALCON 9 DEB 3.1 02:35:24 12° WSW 02:38:32 80° SSE 02:42:01 10° ENE
STARLINK-1241 3.8 02:35:38 10° WNW 02:39:47 78° NNE 02:43:57 10° ESE
STARLINK-29 3.0 02:37:04 10° WSW 02:40:15 75° NNW 02:43:27 10° ENE
STARLINK-1352 3.7 02:37:40 13° SW 02:40:33 46° SSE 02:43:56 10° ENE
Cosmos 1455 3.2 02:37:53 10° NNW 02:41:10 29° W 02:44:16 11° SSW
CZ-2D R/B 4.4 02:37:57 10° NNE 02:41:56 47° E 02:45:58 10° S
STARLINK-1238 3.9 02:38:24 10° WNW 02:42:21 43° SW 02:46:17 10° SE
Landsat 5 4.5 02:37:59 10° SSE 02:42:22 55° ENE 02:46:49 10° N
Cosmos 1825 Rocket 3.7 02:38:21 11° SSW 02:42:25 57° WNW 02:46:43 10° N
STARLINK-1368 3.7 02:39:45 13° SW 02:42:43 48° SSE 02:46:08 10° ENE
STARLINK-1369 3.6 02:41:37 12° SW 02:44:37 49° SSE 02:48:01 10° ENE
STARLINK-1239 3.7 02:40:36 10° WNW 02:44:46 81° NNE 02:48:56 10° ESE
Meteor 1-11 4.4 02:39:21 10° S 02:44:58 78° E 02:50:35 10° NNE
Meteor 1-28 Rocket 3.2 02:41:29 10° SSE 02:45:16 88° WSW 02:49:04 10° NNW
SL-16 R/B 3.7 02:41:06 11° SW 02:45:50 25° W 02:50:48 10° NW
ATLAS CENTAUR R/B 3.0 02:42:58 10° W 02:45:56 29° SW 02:51:51 10° SSE
Cosmos 2263 Rocket 3.7 02:41:37 10° NNW 02:46:58 42° NE 02:52:15 10° ESE
STARLINK-1372 3.6 02:43:58 12° SW 02:47:05 51° SSE 02:50:32 10° ENE
STARLINK-1201 4.0 02:43:26 10° WNW 02:47:19 40° SW 02:51:12 10° SE
Cosmos 2074 Rocket 4.2 02:42:07 10° S 02:48:25 82° E 02:54:45 10° N
Cosmos 372 Rocket 4.2 02:43:42 10° NNW 02:48:51 77° ENE 02:53:59 10° SSE
STARLINK-1378 3.5 02:46:05 11° SW 02:49:18 53° SSE 02:52:46 10° ENE
GP-B 3.9 02:45:19 10° NNW 02:49:23 36° W 02:53:25 10° SW
STARLINK-1240 3.7 02:45:36 10° WNW 02:49:46 84° NNE 02:53:55 10° ESE
STARLINK-1329 3.5 02:46:35 11° SW 02:49:50 53° SSE 02:53:18 10° ENE
IRS-1D 4.0 02:45:05 10° N 02:50:18 54° WNW 02:55:26 10° SW
Cosmos 841 Rocket 3.8 02:45:16 10° S 02:50:28 66° ESE 02:55:40 10° NNE
STARLINK-1365 3.5 02:47:17 11° SW 02:50:32 56° SSE 02:54:01 10° ENE
STARLINK-1379 3.5 02:48:13 11° SW 02:51:31 55° SSE 02:55:00 10° ENE
STARLINK-1362 3.5 02:48:47 11° SW 02:52:07 55° SSE 02:55:36 10° ENE
STARLINK-1206 4.1 02:48:26 10° WNW 02:52:17 37° SW 02:56:07 10° SSE
Cosmos-2242 3.7 02:48:51 10° NNW 02:52:45 35° W 02:56:37 10° SSW
Cosmos 1869 4.4 02:49:36 10° N 02:53:25 46° ENE 02:57:08 10° SSE
Cosmos 1400 Rocket 2.9 02:49:55 10° NNW 02:54:02 71° W 02:58:07 10° S
STARLINK-1373 3.5 02:50:59 10° SW 02:54:24 57° SSE 02:57:54 10° ENE
STARLINK-1216 3.7 02:50:34 10° WNW 02:54:44 88° NNE 02:58:54 10° ESE
Cosmos 2221 3.2 02:50:31 10° N 02:54:48 58° ENE 02:59:05 10° SSE
COBE Rocket 3.9 02:50:26 10° S 02:55:21 73° W 03:00:27 10° NNW
ATLAS 3B R/B 4.3 02:52:47 10° WNW 02:55:46 13° WSW 02:58:48 10° SW
STARLINK-1390 3.4 02:52:58 10° SW 02:56:27 59° SSE 02:59:57 10° ENE
STARLINK-1205 4.2 02:53:26 10° WNW 02:57:14 35° SW 03:01:00 10° SSE
RESURS DK-1 4.4 02:56:36 10° W 02:59:40 20° NW 03:02:44 10° N
STARLINK-1237 3.6 02:55:34 10° WNW 02:59:43 88° SSW 03:03:53 10° ESE
Cosmos 2184 Rocket 4.0 02:53:44 10° S 02:59:56 87° W 03:06:09 10° N
SL-08 R/B 3.7 02:56:25 10° S 03:00:55 44° W 03:05:23 10° NNW
CZ-4C R/B 3.1 02:57:38 10° SSE 03:01:13 90° N 03:04:53 10° NNW
STARLINK-1218 4.3 02:58:26 10° WNW 03:02:10 33° SW 03:05:53 10° SSE
STARLINK-1202 3.6 03:00:33 10° WNW 03:04:43 85° SSW 03:08:52 10° ESE
IRS-P3 4.4 03:00:42 10° N 03:05:55 56° WNW 03:11:06 10° SW
Cosmos 1703 4.2 03:02:31 10° SW 03:06:07 33° WNW 03:09:44 10° N
CZ-2D R/B 3.6 03:02:07 10° N 03:06:17 24° WNW 03:10:24 10° WSW
Cosmos 2227 Rocket 3.1 03:01:54 10° NW 03:06:38 28° WSW 03:11:20 10° SSW
STARLINK-1254 4.4 03:03:28 10° W 03:07:07 30° SW 03:10:46 10° SSE
ADEOS II 2.6 03:03:58 10° N 03:09:01 48° WNW 03:14:03 10° SW
Cosmos 1763 Rocket 3.8 03:04:18 10° SW 03:09:18 53° WNW 03:14:18 10° NNE
Cosmos 2150 Rocket 4.1 03:05:39 10° NNW 03:10:53 88° ENE 03:16:02 10° SSE
Cosmos 1697 Rocket 2.8 03:05:42 10° SSW 03:11:23 78° WNW 03:17:06 10° NNE
